RH
28 33 34 25 22 26 29 26 19 16 16 14 15 18 22 27 29 30 30 33 38 43 44 42 43 48 52 52 32 16 30 54
37 41 40 34 27 27 30 28 21 16 17 18 17 19 25 29 32 34 34 34 35 40 41 36 32 36 51 55 56 40 19 18
33 31 42 35 33 31 30 30 27 17 21 24 26 23 27 31 34 36 37 37 36 34 32 31 26 24 35 57 59 58 48 22
31 30 27 31 34 34 34 32 28 20 20 27 32 29 31 34 35 36 34 35 36 35 31 25 22 21 32 55 56 59 56 51
31 30 28 30 34 35 35 34 27 24 26 32 49 44 44 42 43 43 42 38 34 32 31 25 20 27 40 57 54 60 65 62
36 38 36 39 42 41 41 36 29 27 30 43 59 61 59 57 54 56 58 54 44 38 36 32 26 20 27 46 48 58 61 65
52 57 64 69 72 74 58 44 38 39 54 57 69 84 89 82 70 63 66 69 61 52 47 39 29 22 24 40 47 60 67 71
55 61 68 84 97 99 88 69 58 52 60 59 82 96 100 100 91 79 79 64 46 38 34 34 28 22 24 32 47 62 65 55
49 54 74 95 95 95 100 69 64 64 73 80 94 100 100 100 94 82 76 61 41 30 30 30 26 21 25 36 48 66 67 62
38 40 48 68 88 84 81 70 72 84 68 95 97 96 99 100 95 93 69 50 46 36 38 28 23 22 28 54 58 71 67 59
37 33 47 66 91 93 92 78 97 95 98 95 96 97 93 94 96 92 85 50 58 74 39 41 34 26 30 52 65 79 74 61
38 36 52 74 96 96 86 98 87 97 98 92 96 93 86 89 95 95 95 87 85 84 43 68 39 32 34 50 63 77 84 66
53 49 56 83 95 97 92 94 90 94 97 95 90 92 92 94 98 98 93 98 93 76 76 65 58 34 39 58 70 81 87 84
50 46 50 83 97 94 96 96 92 96 97 97 97 97 97 96 97 97 98 96 96 90 83 66 72 43 48 68 80 87 89 87
11 16 36 63 91 96 96 96 89 96 97 95 95 98 96 96 97 97 97 95 97 97 92 85 80 68 62 67 76 89 97 99
10 16 23 29 44 69 90 91 87 93 94 85 80 96 96 98 98 97 98 96 97 97 100 98 98 91 91 96 93 88 95 97
10 11 19 17 15 39 67 66 74 78 98 82 84 94 100 94 90 91 99 98 96 96 96 97 96 86 76 86 88 92 98 98
10 12 12 12 16 14 37 62 58 83 88 91 100 97 89 91 83 88 94 98 100 98 97 96 92 97 90 84 77 80 86 82
11 12 13 13 12 12 17 31 55 84 90 88 78 80 76 79 79 76 78 86 93 97 100 98 98 82 52 43 41 32 29 27
14 15 16 15 14 13 14 24 23 26 34 36 58 74 68 70 62 54 52 56 72 86 94 91 88 98 92 86 73 36 28 18
Wind_Speed
28 31 33 32 31 29 28 28 25 25 23 20 20 20 19 19 18 17 18 18 19 18 17 18 18 17 15 17 15 14 13 13
35 34 33 34 34 33 31 31 28 26 25 23 21 22 22 21 20 20 20 20 21 22 22 22 23 20 18 18 19 17 17 16
36 33 35 34 35 35 33 33 32 28 26 25 23 24 24 24 23 22 22 23 24 25 25 27 27 26 24 22 21 21 21 21
36 35 34 38 38 36 34 33 33 30 29 27 25 25 26 27 26 25 25 26 26 27 27 29 30 28 27 26 24 24 25 25
42 41 39 41 40 38 36 35 33 30 29 29 26 26 28 29 29 28 29 29 29 29 29 29 30 32 29 28 28 26 26 26
44 45 43 41 40 40 38 35 32 30 29 28 28 29 29 30 31 31 31 30 31 33 32 31 29 31 32 30 30 29 26 27
43 44 42 40 39 39 37 33 31 30 29 30 29 30 31 32 32 33 33 34 34 36 37 33 30 29 31 31 31 30 27 27
42 41 41 39 37 37 37 35 34 34 34 34 30 30 32 34 35 35 35 36 35 37 37 34 32 28 28 30 31 30 28 29
36 37 38 38 37 39 36 42 42 39 40 37 33 32 34 35 36 38 38 38 35 37 35 34 33 32 28 28 30 28 25 27
35 37 39 38 37 40 42 43 44 43 42 41 38 33 36 38 38 38 40 39 32 35 35 34 33 33 31 28 30 29 25 24
33 36 39 40 36 39 38 41 46 49 46 41 39 38 39 42 41 41 41 39 31 37 36 36 34 34 34 31 28 30 28 26
31 32 38 37 37 36 35 37 25 22 42 33 41 46 48 46 45 43 41 39 32 35 35 39 36 34 34 34 31 29 29 28
26 30 34 36 35 36 38 30 33 37 39 43 41 45 49 50 49 43 46 39 38 37 39 33 33 35 35 34 35 33 29 29
25 30 32 35 37 36 36 35 36 36 38 36 50 49 49 51 46 47 40 45 39 34 32 34 36 35 35 36 37 36 33 32
23 27 30 34 42 40 36 34 35 39 41 41 38 44 44 30 37 46 51 38 34 34 34 36 37 37 39 39 40 38 39 37
25 26 32 34 38 39 39 38 40 44 44 44 39 32 25 32 36 35 35 39 34 33 34 34 34 33 33 39 44 44 44 42
30 27 30 35 41 43 43 46 47 48 40 38 38 41 53 50 39 44 45 44 38 42 40 41 41 39 37 36 37 40 41 41
38 37 38 38 42 47 52 51 49 52 48 42 42 44 46 48 42 41 45 46 47 45 43 44 43 38 39 37 38 40 39 41
43 41 41 43 46 47 51 55 57 57 56 57 58 58 58 56 53 51 49 46 44 42 46 47 45 38 39 38 41 42 41 42
46 47 47 46 48 52 53 55 59 62 63 64 62 60 58 60 59 57 53 50 56 55 50 49 51 47 47 43 45 44 46 45
Wind_Direction
318 321 316 310 307 305 305 304 302 299 294 290 288 285 283 283 283 282 285 289 293 298 301 304 309 314 310 303 297 294 289 279
315 311 308 305 304 302 300 301 298 293 289 286 281 280 280 279 276 278 280 283 285 289 293 296 300 303 308 311 300 287 276 273
312 317 304 301 303 299 297 298 296 286 282 282 277 277 276 275 273 272 274 276 278 281 288 293 295 297 299 304 301 288 272 263
309 308 307 303 300 295 295 293 289 283 280 279 276 274 274 274 273 273 272 272 274 277 279 284 290 292 291 297 303 289 275 266
306 304 302 301 299 295 290 287 281 277 275 275 275 272 271 273 273 273 273 274 275 276 277 280 284 286 287 294 299 290 278 268
302 302 301 298 294 290 287 281 277 274 274 273 271 272 272 272 273 275 275 275 276 276 276 280 279 280 284 291 297 292 278 269
297 296 294 292 289 287 282 278 274 269 263 263 263 264 267 269 271 273 273 272 271 272 274 274 275 274 275 285 294 293 280 269
290 289 290 287 283 281 278 276 276 272 264 262 258 258 262 266 268 268 269 269 269 271 273 276 277 275 274 280 289 292 284 273
288 291 293 286 282 279 274 282 283 273 266 256 250 249 253 258 262 265 267 269 271 275 277 279 280 278 274 278 284 286 278 275
291 293 291 290 286 283 284 286 282 274 265 253 247 242 253 256 260 263 269 270 273 277 280 281 279 277 276 278 286 285 275 270
287 288 289 286 284 282 285 290 285 272 259 252 247 247 255 254 257 262 266 272 273 273 275 276 277 278 276 277 281 285 278 271
286 288 282 285 284 282 286 295 302 271 234 262 250 251 255 254 255 259 260 265 269 272 271 279 270 272 274 276 278 282 280 274
282 280 281 282 285 281 288 289 297 284 265 269 257 260 259 255 253 251 264 259 265 269 274 275 272 273 273 274 276 280 279 277
290 285 291 289 283 283 290 289 291 296 283 276 271 266 257 260 261 262 253 264 267 270 266 268 268 271 272 273 274 275 277 274
303 303 297 293 289 289 294 292 295 296 304 300 303 279 267 289 275 258 270 265 261 264 264 262 261 262 266 271 273 276 274 274
316 308 300 298 293 291 293 291 292 291 295 295 297 284 260 299 299 294 283 275 265 265 266 268 264 266 269 272 274 274 274 273
309 300 291 290 291 288 283 283 285 287 288 293 295 286 291 287 291 286 293 290 282 276 264 263 263 265 266 269 273 279 279 280
302 300 295 291 284 285 283 283 282 275 284 285 280 282 283 290 297 287 290 291 287 277 270 273 273 270 265 264 267 268 270 275
296 293 286 281 280 280 282 284 284 281 281 281 279 281 283 290 293 291 289 286 289 291 285 270 269 265 266 268 270 270 271 272
293 289 283 276 274 277 279 279 282 284 284 286 285 285 286 287 291 292 291 289 284 286 289 288 287 279 275 278 269 270 273 272